Flag for Canada Weather past 2 weeks in Montreal, Quebec, Canada

Now
23 °F

Clear.


Feels Like: 18 °F
Forecast: 19 / 37 °F
Wind: 3 mph from Southwest

Location: Montreal - Pierre Elliot Trudeau International Aiport

Current Time: Mar 28, 2015 at 10:01:26 PM

Latest Report: Mar 28, 2015 at 9:00 PM


Visibility: 15 mi

Pressure: 30.07 "Hg

Humidity: 54%

Dew point: 9 °F

Location of MontrealLocation

Historic Weather in Montreal — Graph

°F

Montreal temperature yesterday

Maximum temperature yesterday: 36 °F (at 12:00 AM)
Minimum temperature yesterday: 27 °F (at 11:00 PM)
Average temperature yesterday: 32 °F

Past Weeks' High & Low Weather Summary

 TemperatureHumidityPressure
High45 °F (Mar 25, 5:00 PM)100% (Mar 21, 4:00 PM)30.42 "Hg (Mar 21, 4:00 PM)
Low3 °F (Mar 23, 7:00 AM)28% (Mar 20, 3:00 PM)29.49 "Hg (Mar 17, 10:00 AM)
Average25 °F65%30.01 "Hg
* Reported Mar 13 9:00 PM — Mar 28 9:00 PM, Montreal, Weather by CustomWeather, © 2015

Note: Actual official high and low records may vary slightly from our data, if they occured in-between our weather recording intervals... More about our weather records

Advertising

Montreal weather history for previous 24 hours

 ConditionsComfort  
Time TempWeatherWind HumidityBarometerVisibility
9:00 PM
Sat, Mar 28
23 °FClear.3 mph54%30.07 "Hg15 mi
8:00 PM25 °FSunny.9 mph46%30.05 "Hg15 mi
7:00 PM25 °FPassing clouds.9 mph46%30.03 "Hg30 mi
6:00 PM27 °FPassing clouds.15 mph43%30.02 "Hg30 mi
5:00 PM27 °FPassing clouds.16 mph43%30.01 "Hg30 mi
4:00 PM28 °FPassing clouds.10 mph40%30.01 "Hg30 mi
3:00 PM27 °FPassing clouds.10 mph39%30.01 "Hg30 mi
2:00 PM25 °FPassing clouds.3 mph30%30.03 "Hg30 mi
1:00 PM23 °FPassing clouds.3 mph33%30.06 "Hg30 mi
12:00 PM21 °FPassing clouds.6 mph35%30.07 "Hg30 mi
11:00 AM19 °FPassing clouds.10 mph42%30.08 "Hg30 mi
10:00 AM18 °FPassing clouds.14 mph45%30.07 "Hg30 mi
9:00 AM16 °FPassing clouds.13 mph53%30.06 "Hg30 mi
8:00 AM16 °FPartly sunny.13 mph57%30.06 "Hg15 mi
7:00 AM16 °FPassing clouds.13 mph62%30.03 "Hg15 mi
6:00 AM16 °FOvercast.13 mph62%30.01 "Hg15 mi
5:00 AM18 °FOvercast.12 mph58%30.00 "Hg15 mi
4:00 AM19 °FPassing clouds.12 mph58%29.99 "Hg15 mi
3:00 AM19 °FPassing clouds.13 mph53%29.98 "Hg15 mi
2:00 AM21 °FPartly cloudy.16 mph45%29.97 "Hg15 mi
1:00 AM23 °FPassing clouds.12 mph50%29.96 "Hg15 mi
12:00 AM27 °FLight snow. Passing clouds.17 mph46%29.93 "Hg15 mi
11:00 PM
Fri, Mar 27
27 °FLight snow. Mostly cloudy.5 mph93%29.91 "Hg15 mi
10:00 PM28 °FLight snow. Mostly cloudy.9 mph86%29.89 "Hg1 mi
Weather by CustomWeather, © 2015

See weather overviewHow to use our weather pages